Location: Peebles
(55.6412°N, 3.1714°W)
Time: 22:23:18
(UTC+01:00)

NOAA 16 DEB - Pass Details

Date: 12 July 2022
Orbit: 811 x 875 km, 98.7° (Epoch: 15 August)

Event Time Altitude Azimuth Distance (km) Brightness Sun altitude
Rises 23:01:26 0° 204° (SSW) 3,350 ? -7.2°
Reaches altitude 10° 23:04:14 10° 219° (SW) 2,431 ? -7.4°
Maximum altitude 23:08:28 23° 271° (W) 1,705 ? -7.7°
Drops below altitude 10° 23:12:48 10° 323° (NW) 2,478 ? -8.0°
Sets 23:15:42 0° 338° (NNW) 3,431 ? -8.2°
